Location: Leipzig
(51.3203°N, 12.3761°E)
Time: 20:54:01
(UTC+01:00)

ISS - Pass Details

Date: 01 December 2021
Orbit: 413 x 422 km, 51.6° (Epoch: 27 January)

Event Time Altitude Azimuth Distance (km) Brightness Sun altitude
Rises 16:54:33 0° 269° (W) 2,388 1.4 -7.4°
Reaches altitude 10° 16:56:40 10° 270° (W) 1,521 0.3 -7.7°
Maximum altitude 17:00:05 83° 359° (N) 434 -3.7 -8.2°
Enters shadow 17:03:27 10° 87° (E) 1,499 -1.5 -8.6°
